Probability
16 16 15 13 12 11 9 7 7 8 10 10 10 12 14 15 15 14 13 12 11 9 7 5 4 3 3 2 2 2 2 2 1 0 0 0 0 1 2 3 4 3 3
17 17 16 14 12 11 9 6 6 7 8 9 11 12 14 14 14 13 13 13 12 11 9 7 5 4 3 3 3 2 2 2 2 1 0 1 1 0 1 2 3 3 2
20 20 19 17 13 11 10 8 7 6 7 8 10 11 12 13 13 12 12 13 13 12 11 10 8 5 4 4 3 3 2 3 3 2 1 1 1 1 0 0 1 1 1
22 22 22 19 14 12 12 11 9 7 6 7 8 8 10 11 11 11 11 12 13 13 13 12 10 9 6 5 4 3 4 4 4 3 1 1 1 1 1 1 0 0 0
21 20 19 17 14 12 12 11 9 7 6 6 6 7 8 10 10 9 9 11 12 13 13 12 12 11 9 6 5 4 4 5 5 3 2 2 1 1 2 2 1 0 0
16 16 16 15 14 13 12 10 8 7 6 6 7 7 8 9 8 7 7 9 11 13 13 12 11 10 9 7 5 4 4 5 5 4 5 5 4 3 3 3 2 1 0
15 15 15 16 16 16 14 11 8 7 7 8 8 9 9 8 7 5 4 6 9 12 12 12 11 10 9 8 6 4 4 4 4 4 6 6 5 4 3 3 3 2 1
17 17 17 18 20 20 18 14 11 9 9 8 9 9 9 8 6 4 3 5 7 10 11 11 11 10 9 8 6 5 4 4 3 4 5 6 6 5 4 3 3 2 1
17 18 20 21 23 23 21 18 15 13 11 9 8 8 7 7 6 4 3 5 7 9 10 10 10 9 8 7 6 6 6 5 4 4 4 5 4 3 3 2 1 1 0
17 18 20 22 24 24 22 21 19 17 15 13 10 9 8 7 6 5 3 5 7 9 9 9 8 8 6 4 5 6 7 7 6 5 4 4 3 1 1 1 0 0 0
18 18 21 24 24 23 21 21 20 18 17 16 14 13 12 10 8 6 3 3 6 8 9 9 8 6 3 2 2 4 6 7 8 7 6 4 3 1 0 0 0 0 0
19 20 23 25 24 22 19 18 18 17 16 15 15 14 14 13 11 7 3 2 3 6 8 8 8 6 2 0 0 2 3 5 8 10 9 6 4 3 1 1 0 0 0
18 19 20 21 21 19 16 15 16 16 15 14 13 13 13 14 12 9 5 2 1 3 4 5 6 5 2 0 0 0 1 3 9 12 11 7 5 4 2 1 1 1 0
14 15 16 16 16 15 14 14 14 14 13 13 12 12 12 13 13 11 8 5 3 3 3 3 3 3 3 2 2 1 1 4 8 11 9 6 3 2 1 1 1 1 1
10 11 12 13 14 14 13 12 10 9 9 9 9 9 10 11 11 11 10 8 5 4 5 5 4 5 5 7 6 3 2 4 7 8 7 5 2 0 0 0 1 1 0
9 9 9 10 12 13 13 10 8 5 4 4 4 5 5 6 7 8 8 6 4 3 5 7 8 7 8 9 8 6 5 5 7 8 8 6 3 1 1 1 0 0 0
9 8 6 7 8 10 11 10 7 4 2 1 2 2 2 1 2 3 3 2 1 1 5 9 10 10 9 9 8 7 6 7 8 9 9 7 5 4 3 2 1 0 0
7 7 6 5 6 7 8 8 6 3 2 2 2 1 1 0 0 1 1 0 1 2 5 10 12 11 9 8 7 6 7 8 9 10 9 8 6 5 4 2 1 0 0
6 6 5 4 5 5 5 4 3 2 1 1 1 1 0 0 0 0 0 1 2 4 6 9 11 10 9 8 7 7 7 8 9 9 9 8 6 5 4 1 0 0 0
6 5 3 2 3 4 3 2 1 0 0 0 0 0 0 0 0 0 0 1 3 5 6 7 8 9 8 7 6 7 7 7 8 8 9 7 5 3 2 0 0 0 0
5 4 1 1 2 2 2 1 0 0 0 0 0 0 0 0 0 0 1 1 2 4 5 6 6 6 6 5 5 6 6 7 6 7 7 5 2 1 0 0 0 0 0
3 2 1 0 1 1 1 0 0 0 0 0 0 0 0 0 0 0 1 2 3 3 4 4 4 4 4 3 4 4 4 4 5 5 4 3 1 0 0 0 0 0 0
2 1 0 0 0 0 0 0 0 0 0 0 0 0 0 0 0 0 1 2 3 3 3 3 4 4 3 3 3 3 3 3 3 3 3 2 1 0 0 0 0 0 0
2 1 0 0 0 0 0 0 0 0 0 0 0 0 0 0 0 0 0 1 3 3 3 2 3 2 2 3 3 3 3 3 2 3 3 2 1 0 0 0 0 0 0
2 1 0 0 0 0 0 0 0 0 0 0 0 0 0 0 0 0 0 1 2 2 1 1 1 1 1 2 3 3 3 2 1 2 2 2 1 0 0 0 0 0 0
1 0 0 0 0 0 0 0 0 0 0 0 0 0 0 0 0 0 0 0 1 2 1 0 0 0 0 1 3 3 3 1 1 1 1 1 0 0 0 0 0 0 0
Wind_Speed
4 4 4 3 3 2 2 2 1 1 1 2 2 2 2 2 2 2 2 2 2 2 2 2 2 2 1 1 1 1 2 2 2 3 2 1 2 2 1 2 2 2 3
4 4 4 3 3 3 2 2 1 1 1 2 1 1 2 2 2 2 3 2 3 3 2 2 2 1 1 1 1 2 2 2 3 3 2 1 2 2 2 2 2 2 2
4 4 3 3 3 3 3 3 2 2 1 1 1 1 2 2 2 3 3 3 3 3 3 3 3 3 2 2 2 2 2 2 2 3 3 2 1 1 1 2 2 2 3
4 4 4 4 4 4 3 3 3 2 2 2 2 2 2 2 2 2 3 3 3 3 3 4 4 4 4 3 3 3 3 2 2 2 2 2 2 1 1 1 2 2 2
3 4 4 3 3 3 3 3 3 3 3 3 3 2 2 2 2 2 2 3 3 4 3 4 4 5 5 4 3 3 3 2 2 2 2 1 2 1 2 2 2 2 2
3 4 4 3 3 3 3 3 2 3 3 2 3 3 3 3 3 4 3 3 3 4 4 4 4 4 4 5 5 5 5 4 4 3 3 3 4 3 3 3 2 1 2
3 3 3 3 3 4 4 3 3 3 3 3 3 3 3 4 5 4 4 3 3 4 4 4 4 3 3 3 4 5 5 6 6 5 5 5 5 5 4 3 3 3 4
2 2 2 2 3 3 3 3 4 3 3 3 3 3 3 4 4 4 4 3 3 3 4 4 4 3 3 3 3 3 4 4 6 5 6 6 6 5 5 5 5 3 2
2 2 2 3 3 3 3 4 3 3 3 3 3 3 3 4 5 5 4 2 2 4 4 4 3 4 5 4 3 3 4 4 5 6 7 7 7 7 5 3 2 2 2
2 2 2 2 3 3 4 3 2 2 3 3 3 3 3 4 4 4 3 1 2 3 3 4 5 5 5 5 4 4 5 5 3 3 3 4 4 5 6 6 5 4 2
2 2 1 2 2 3 3 2 2 2 1 2 2 3 3 4 4 4 4 3 3 3 3 4 4 6 7 7 6 5 8 6 3 3 3 2 2 2 3 4 5 5 4
1 1 1 2 2 1 1 1 1 1 1 2 2 3 2 3 4 4 5 6 5 4 4 4 4 6 7 8 6 7 7 5 2 2 2 3 3 3 3 4 5 5 5
0 0 1 1 1 1 1 1 1 1 1 2 2 2 3 3 3 5 5 6 6 5 5 6 6 6 6 5 7 7 5 3 3 3 4 4 3 3 2 2 2 2 2
1 0 1 0 1 1 1 1 1 1 1 2 2 3 3 3 3 3 3 3 4 4 4 5 6 6 4 4 4 4 3 4 4 4 4 3 2 1 2 2 2 2 1
1 0 1 0 1 1 1 1 2 3 4 3 3 3 3 4 5 5 3 3 3 4 2 2 1 1 2 2 2 3 3 3 4 3 3 2 2 2 2 1 2 2 2
1 1 1 1 1 1 1 2 3 3 5 5 5 4 4 6 6 6 6 5 5 3 2 2 2 2 3 3 3 3 3 4 4 3 3 3 3 3 2 2 1 2 2
2 2 2 2 2 2 2 2 2 4 4 4 5 5 5 5 5 5 5 4 3 3 2 3 3 3 3 3 3 3 3 3 2 3 3 3 3 2 2 2 2 1 2
2 2 2 2 2 2 2 2 2 2 3 3 4 5 5 5 4 4 3 1 1 2 3 3 3 3 3 3 3 3 3 2 2 2 2 3 3 3 2 2 3 3 3
2 2 2 2 2 2 2 2 2 2 2 3 3 3 4 4 3 3 2 2 3 3 3 3 3 3 3 3 3 3 3 2 2 2 2 2 2 2 3 3 3 3 3
2 3 2 2 2 2 2 2 2 2 2 2 2 2 1 1 1 2 2 2 3 3 3 3 3 3 3 3 2 2 2 2 2 2 2 2 2 2 3 3 3 2 2
2 2 2 2 2 2 2 2 2 2 2 2 3 3 3 2 2 2 2 2 3 3 3 3 3 2 2 2 1 2 2 2 2 2 2 2 2 2 2 2 2 2 2
1 1 1 2 2 2 2 2 1 2 2 2 2 3 4 2 2 2 2 2 2 3 2 2 2 2 2 2 2 2 2 2 2 2 2 2 2 2 2 2 2 2 2
1 2 2 2 2 2 2 1 1 2 2 2 2 2 2 2 2 2 2 2 2 2 1 2 2 2 2 2 2 2 2 3 3 3 3 2 2 2 2 2 2 2 2
2 2 2 2 2 2 2 2 2 2 2 2 2 1 2 2 2 2 2 2 2 1 1 1 2 2 2 1 1 1 2 2 2 3 4 3 3 2 2 2 2 2 3
2 2 2 2 2 2 2 2 2 2 2 1 1 1 2 2 2 2 2 2 1 1 1 1 1 1 1 2 1 1 1 1 1 1 2 2 2 2 2 2 2 2 2
2 2 2 2 2 2 2 2 2 2 2 2 2 2 2 2 2 2 2 1 1 1 1 1 1 1 1 1 1 1 1 1 1 1 1 1 2 2 2 2 2 2 2
Wind_Direction
181 179 179 185 185 180 181 195 189 182 182 192 198 197 207 221 215 197 211 211 207 227 226 204 228 213 205 214 196 189 193 173 214 262 239 230 196 222 223 217 217 219 230
184 176 182 185 178 174 190 199 186 190 210 210 202 205 221 221 217 211 224 223 210 213 218 205 232 226 217 210 191 202 211 202 190 239 262 238 217 215 213 215 223 220 224
173 173 182 188 185 193 203 203 195 195 210 225 212 224 238 226 221 224 223 226 219 220 215 206 216 210 230 225 203 208 217 221 196 205 244 234 229 219 196 242 231 242 235
163 170 189 201 201 207 210 205 201 197 197 214 226 234 236 232 228 231 229 228 229 232 224 216 216 209 218 218 217 216 208 206 212 209 232 238 235 230 166 220 249 245 246
170 184 200 206 201 202 207 214 215 213 215 217 225 238 242 235 236 233 237 237 232 236 235 230 229 224 219 214 210 207 204 206 211 218 234 232 236 217 221 216 224 247 258
172 196 203 195 198 209 215 215 215 225 230 225 228 232 239 250 252 239 226 238 237 233 236 240 236 228 232 226 222 215 205 206 211 216 227 225 236 226 211 206 199 194 257
184 198 198 197 204 217 224 217 217 225 233 239 238 233 238 249 247 245 241 227 231 231 227 230 234 235 223 235 243 242 240 235 219 210 219 227 225 219 199 206 210 209 226
176 197 205 197 212 220 217 221 224 224 229 237 240 236 236 246 239 239 239 231 235 241 232 222 222 237 236 225 234 241 243 242 234 222 222 231 229 217 202 204 207 213 254
181 207 216 207 216 220 222 230 226 221 236 240 239 233 233 248 238 235 224 232 252 260 252 235 224 227 238 220 208 232 256 265 253 237 232 235 237 231 208 175 178 172 244
204 221 230 215 216 223 224 229 232 222 233 242 251 243 232 245 250 239 216 221 253 265 267 256 242 231 228 211 206 218 242 254 259 269 262 263 251 243 218 196 190 187 203
216 231 242 233 229 225 226 233 227 223 232 250 263 266 250 244 245 235 218 215 238 254 259 258 251 238 233 229 222 223 236 242 241 237 244 256 259 246 231 211 199 191 196
210 235 248 236 235 238 218 253 231 209 224 255 271 281 274 258 249 246 232 228 231 235 251 255 255 249 242 241 234 237 242 241 234 234 236 237 236 240 242 228 214 211 211
74 287 269 267 258 235 182 195 211 199 229 257 255 262 274 274 270 263 252 249 246 238 249 257 262 257 251 249 246 245 240 222 220 229 237 238 236 237 235 234 223 217 232
103 334 294 281 295 292 244 215 206 223 248 261 263 265 272 277 281 287 279 265 260 256 261 268 265 260 250 250 260 249 226 217 215 228 237 236 226 226 229 221 209 193 202
154 277 292 280 222 252 261 242 233 231 224 229 245 247 256 266 265 261 253 254 246 245 249 263 276 286 271 265 259 249 231 223 226 231 231 231 225 224 232 226 198 184 190
201 238 251 253 250 256 287 317 307 273 264 245 240 242 253 256 266 259 253 252 254 242 201 238 250 251 253 255 254 248 233 225 223 219 221 220 219 218 218 212 195 187 192
204 221 232 236 232 238 244 251 290 311 299 272 263 260 259 263 262 260 257 256 255 201 205 240 246 249 252 251 248 242 242 237 222 213 219 219 213 214 209 202 193 185 198
202 218 229 232 224 225 235 242 236 252 291 303 293 275 270 264 261 262 251 206 283 219 227 237 244 248 248 248 245 240 240 235 223 225 226 225 214 205 210 214 205 199 202
212 234 237 236 226 223 228 233 244 249 259 279 302 304 285 279 274 261 188 192 227 237 240 244 240 241 246 248 245 239 231 231 226 213 221 231 222 204 212 215 212 209 201
228 240 232 227 225 231 233 228 237 246 255 264 270 279 302 336 317 293 238 231 232 241 248 251 249 243 242 243 240 237 226 232 231 217 217 220 217 209 215 212 203 203 212
229 242 237 229 229 228 233 234 236 239 248 255 261 260 229 224 244 255 251 244 242 245 249 252 251 248 242 235 226 226 226 235 238 230 224 221 216 214 206 197 199 204 208
216 233 231 231 235 240 238 231 234 239 252 258 266 266 251 254 253 256 252 250 244 238 233 230 239 245 236 224 211 208 220 230 229 222 217 216 216 208 197 192 197 204 210
211 222 239 244 231 243 246 236 236 240 252 270 270 269 259 258 261 257 258 260 260 247 225 203 212 253 263 240 214 200 208 227 229 214 201 201 204 205 197 199 203 205 212
228 227 229 230 227 228 229 233 241 247 250 260 271 267 255 253 260 265 271 276 275 262 225 205 218 234 253 273 257 225 223 235 232 215 200 192 192 201 200 205 212 215 213
250 246 233 225 222 226 229 236 242 245 250 255 258 260 258 264 273 278 280 272 267 266 253 235 223 226 234 242 241 243 253 244 243 221 186 182 188 195 200 205 207 210 201
258 251 244 226 223 228 228 234 241 244 245 252 250 247 251 260 268 274 276 267 252 249 255 250 236 195 187 207 227 212 184 216 254 234 167 170 184 190 184 188 196 198 192